When you browse on this site, cookies collect data to enhance your experience and personalize the content and advertising you see.
Visit our Privacy Policy to learn more. By continuing to use the site, you agree to this use of cookies and data.
  • In Slovakia
  • List of Countries
  • For 7 days
  • Water Temperature
  • Weather Map
  • Weather Widgets
  • user-avatar
    Login

    Hourly Weather Lubango

    Today, 23 February, Sunday

    Time Temperature Precipitation Wind Pressure Humidity
    00:00 +19°C° 0 mm 1 mps 607 mmHg 54%
    01:00 +19°C° 0 mm 1 mps 607 mmHg 52%
    02:00 +19°C° 0 mm 1 mps 607 mmHg 50%
    03:00 +19°C° 0 mm 1 mps 607 mmHg 47%
    04:00 +19°C° 0 mm 1 mps 607 mmHg 44%
    05:00 +19°C° 0 mm 1 mps 607 mmHg 47%
    06:00 +19°C° 0 mm 1 mps 608 mmHg 50%
    07:00 +18°C° 0 mm 1 mps 608 mmHg 52%
    08:00 +19°C° 0.1 mm 1 mps 609 mmHg 54%
    09:00 +20°C° 0.1 mm 1 mps 609 mmHg 56%
    10:00 +21°C° 0.1 mm 1 mps 609 mmHg 58%
    11:00 +21°C° 0.1 mm 1 mps 609 mmHg 59%
    12:00 +21°C° 0.1 mm 1 mps 609 mmHg 60%
    13:00 +22°C° 0.1 mm 1 mps 609 mmHg 61%
    14:00 +22°C° 0 mm 1 mps 609 mmHg 59%
    15:00 +23°C° 0 mm 2 mps 608 mmHg 57%
    16:00 +24°C° 0 mm 2 mps 608 mmHg 55%
    17:00 +21°C° 0 mm 2 mps 608 mmHg 62%
    18:00 +20°C° 0 mm 1 mps 607 mmHg 69%
    19:00 +18°C° 0 mm 1 mps 607 mmHg 77%
    20:00 +18°C° 0 mm 1 mps 607 mmHg 79%
    21:00 +16°C° 0 mm 1 mps 608 mmHg 81%
    22:00 +16°C° 0 mm 1 mps 608 mmHg 83%
    23:00 +16°C° 0 mm 1 mps 608 mmHg 84%

    Tomorrow, 24 February, Monday

    Time Temperature Precipitation Wind Pressure Humidity
    00:00 +15°C° 0 mm 1 mps 607 mmHg 85%
    01:00 +15°C° 0 mm 1 mps 607 mmHg 86%
    02:00 +15°C° 0 mm 1 mps 607 mmHg 85%
    03:00 +15°C° 0 mm 1 mps 607 mmHg 85%
    04:00 +15°C° 0 mm 1 mps 607 mmHg 84%
    05:00 +16°C° 0 mm 1 mps 607 mmHg 82%
    06:00 +16°C° 0 mm 1 mps 607 mmHg 81%
    07:00 +16°C° 0 mm 1 mps 608 mmHg 79%
    08:00 +19°C° 0 mm 1 mps 609 mmHg 71%
    09:00 +21°C° 0 mm 1 mps 610 mmHg 63%
    10:00 +23°C° 0 mm 1 mps 610 mmHg 56%
    11:00 +24°C° 0 mm 2 mps 610 mmHg 53%
    12:00 +25°C° 0 mm 2 mps 610 mmHg 51%
    13:00 +26°C° 0 mm 2 mps 610 mmHg 49%
    14:00 +25°C° 0.2 mm 2 mps 609 mmHg 52%
    15:00 +24°C° 0.2 mm 3 mps 609 mmHg 56%
    16:00 +24°C° 0.2 mm 3 mps 608 mmHg 60%
    17:00 +21°C° 0.1 mm 2 mps 608 mmHg 67%
    18:00 +19°C° 0.1 mm 2 mps 607 mmHg 74%
    19:00 +18°C° 0.1 mm 1 mps 607 mmHg 82%
    20:00 +18°C° 0 mm 1 mps 607 mmHg 82%
    21:00 +16°C° 0 mm 1 mps 608 mmHg 83%
    22:00 +16°C° 0 mm 1 mps 608 mmHg 83%
    23:00 +16°C° 0 mm 1 mps 608 mmHg 84%

    Day after tomorrow, 25 February, Tuesday

    Time Temperature Precipitation Wind Pressure Humidity
    00:00 +16°C° 0 mm 1 mps 607 mmHg 85%
    01:00 +15°C° 0 mm 1 mps 607 mmHg 86%
    02:00 +15°C° 0 mm 1 mps 607 mmHg 85%
    03:00 +15°C° 0 mm 1 mps 606 mmHg 84%
    04:00 +15°C° 0 mm 1 mps 606 mmHg 84%
    05:00 +15°C° 0 mm 1 mps 606 mmHg 81%
    06:00 +15°C° 0 mm 1 mps 607 mmHg 79%
    07:00 +15°C° 0 mm 1 mps 607 mmHg 76%
    08:00 +19°C° 0 mm 1 mps 608 mmHg 67%
    09:00 +21°C° 0 mm 1 mps 609 mmHg 59%
    10:00 +24°C° 0 mm 1 mps 610 mmHg 50%
    11:00 +24°C° 0 mm 1 mps 610 mmHg 48%
    12:00 +25°C° 0 mm 2 mps 610 mmHg 47%
    13:00 +26°C° 0 mm 2 mps 610 mmHg 45%
    14:00 +26°C° 0 mm 2 mps 609 mmHg 47%
    15:00 +25°C° 0 mm 3 mps 608 mmHg 50%
    16:00 +24°C° 0 mm 3 mps 607 mmHg 52%
    17:00 +21°C° 0 mm 2 mps 607 mmHg 60%
    18:00 +19°C° 0 mm 2 mps 607 mmHg 68%
    19:00 +18°C° 0 mm 1 mps 606 mmHg 76%
    20:00 +18°C° 0 mm 1 mps 606 mmHg 79%
    21:00 +16°C° 0 mm 1 mps 607 mmHg 81%
    22:00 +14°C° 0 mm 0 mps 607 mmHg 83%
    23:00 +15°C° 0 mm 1 mps 607 mmHg 82%

    26 February, Wednesday

    Time Temperature Precipitation Wind Pressure Humidity
    00:00 +15°C° 0 mm 1 mps 606 mmHg 82%
    01:00 +15°C° 0 mm 1 mps 606 mmHg 82%
    02:00 +15°C° 0 mm 1 mps 606 mmHg 79%
    03:00 +15°C° 0 mm 1 mps 606 mmHg 76%
    04:00 +15°C° 0 mm 1 mps 605 mmHg 73%
    05:00 +15°C° 0 mm 1 mps 606 mmHg 70%
    06:00 +15°C° 0 mm 1 mps 606 mmHg 68%
    07:00 +15°C° 0 mm 1 mps 607 mmHg 66%
    08:00 +18°C° 0 mm 2 mps 608 mmHg 59%
    09:00 +20°C° 0 mm 2 mps 609 mmHg 53%
    10:00 +23°C° 0 mm 2 mps 610 mmHg 46%
    11:00 +24°C° 0 mm 2 mps 610 mmHg 44%
    12:00 +25°C° 0 mm 3 mps 610 mmHg 42%
    13:00 +25°C° 0 mm 3 mps 609 mmHg 40%
    14:00 +25°C° 0 mm 3 mps 609 mmHg 41%
    15:00 +25°C° 0 mm 3 mps 608 mmHg 42%
    16:00 +24°C° 0 mm 3 mps 608 mmHg 44%
    17:00 +21°C° 0 mm 2 mps 607 mmHg 54%
    18:00 +19°C° 0 mm 2 mps 607 mmHg 65%
    19:00 +16°C° 0 mm 1 mps 606 mmHg 76%
    20:00 +16°C° 0 mm 1 mps 607 mmHg 79%
    21:00 +15°C° 0 mm 1 mps 607 mmHg 82%
    22:00 +15°C° 0 mm 1 mps 607 mmHg 86%
    23:00 +14°C° 0 mm 1 mps 607 mmHg 82%

    27 February, Thursday

    Time Temperature Precipitation Wind Pressure Humidity
    00:00 +14°C° 0 mm 1 mps 607 mmHg 78%
    01:00 +14°C° 0 mm 1 mps 606 mmHg 74%
    02:00 +14°C° 0 mm 1 mps 606 mmHg 70%
    03:00 +14°C° 0 mm 1 mps 606 mmHg 66%
    04:00 +14°C° 0 mm 1 mps 606 mmHg 62%
    05:00 +14°C° 0 mm 1 mps 607 mmHg 59%
    06:00 +15°C° 0 mm 1 mps 607 mmHg 56%
    07:00 +15°C° 0 mm 1 mps 607 mmHg 53%
    08:00 +19°C° 0 mm 1 mps 608 mmHg 48%
    09:00 +21°C° 0 mm 1 mps 609 mmHg 43%
    10:00 +23°C° 0 mm 1 mps 610 mmHg 38%
    11:00 +24°C° 0 mm 2 mps 610 mmHg 36%
    12:00 +25°C° 0 mm 2 mps 610 mmHg 35%
    13:00 +26°C° 0 mm 2 mps 610 mmHg 34%
    14:00 +26°C° 0 mm 2 mps 610 mmHg 37%
    15:00 +25°C° 0 mm 2 mps 609 mmHg 39%
    16:00 +25°C° 0 mm 3 mps 608 mmHg 41%
    17:00 +23°C° 0 mm 2 mps 608 mmHg 50%
    18:00 +20°C° 0 mm 1 mps 607 mmHg 60%
    19:00 +18°C° 0 mm 1 mps 607 mmHg 69%
    20:00 +18°C° 0 mm 1 mps 607 mmHg 69%
    21:00 +16°C° 0 mm 1 mps 607 mmHg 70%
    22:00 +16°C° 0 mm 1 mps 608 mmHg 70%
    23:00 +15°C° 0 mm 0 mps 608 mmHg 69%

    28 February, Friday

    Time Temperature Precipitation Wind Pressure Humidity
    00:00 +14°C° 0 mm 0 mps 607 mmHg 68%
    01:00 +14°C° 0 mm 0 mps 607 mmHg 66%
    02:00 +14°C° 0 mm 0 mps 607 mmHg 64%
    03:00 +14°C° 0 mm 0 mps 607 mmHg 61%
    04:00 +14°C° 0 mm 0 mps 607 mmHg 59%
    05:00 +15°C° 0 mm 0 mps 607 mmHg 59%
    06:00 +16°C° 0 mm 1 mps 608 mmHg 59%
    07:00 +18°C° 0 mm 1 mps 608 mmHg 59%
    08:00 +20°C° 0 mm 1 mps 609 mmHg 54%
    09:00 +23°C° 0 mm 1 mps 610 mmHg 49%
    10:00 +25°C° 0 mm 1 mps 612 mmHg 44%
    11:00 +26°C° 0 mm 1 mps 611 mmHg 43%
    12:00 +27°C° 0 mm 1 mps 611 mmHg 41%
    13:00 +27°C° 0 mm 2 mps 611 mmHg 40%
    14:00 +26°C° 0.2 mm 2 mps 610 mmHg 44%
    15:00 +26°C° 0.2 mm 2 mps 609 mmHg 49%
    16:00 +25°C° 0.2 mm 2 mps 608 mmHg 54%
    17:00 +23°C° 0.1 mm 2 mps 608 mmHg 59%
    18:00 +20°C° 0.1 mm 2 mps 607 mmHg 65%
    19:00 +19°C° 0.1 mm 1 mps 607 mmHg 70%
    20:00 +19°C° 0 mm 1 mps 608 mmHg 70%
    21:00 +18°C° 0 mm 1 mps 608 mmHg 69%
    22:00 +18°C° 0 mm 1 mps 608 mmHg 69%
    23:00 +16°C° 0 mm 1 mps 608 mmHg 71%
    Show more